Weather History for Springfield, MO

Change the Weather History Date:

Wednesday, April 10, 2013

  Actual Average Record
Temperature  
Mean Temperature 54 °F 54 °F  
Max Temperature 70 °F 66 °F 87 °F (1930)
Min Temperature 38 °F 42 °F 24 °F (1989)
Degree Days  
Heating Degree Days 11 12  
Month to date heating degree days 115 129  
Since 1 July heating degree days 4130 4303  
Cooling Degree Days 0 1  
Month to date cooling degree days 6 3  
Year to date cooling degree days 6 6  
Moisture  
Dew Point 51 °F    
Average Humidity 82    
Maximum Humidity 96    
Minimum Humidity 68    
Precipitation  
Precipitation 1.76 in 0.13 in 2.31 in (1994)
Month to date precipitation 1.85 1.27  
Year to date precipitation 11.96 9.88  
Snow  
Snow 0.00 in - - ()
Month to date snowfall T  
Since 1 July snowfall 11.3  
Snow Depth 0.00 in    
Sea Level Pressure  
Sea Level Pressure 29.77 in    
Wind  
Wind Speed 11 mph (West)    
Max Wind Speed 24 mph    
Max Gust Speed 32 mph    
Visibility 7 miles    
Events Rain , Thunderstorm    
T = Trace of Precipitation, MM = Missing Value Source: NWS Daily Summary

Daily Weather History Graph

Daily Weather History Graph

Search for Another Location

Airport:

Trip Planner

Search our weather history database for the weather conditions in past years. The results will help you decide how hot, cold, wet, or windy it might be!

Date:

Astronomy

Apr. 10, 2013 Rise Set
Actual Time 6:45 AM CDT 7:44 PM CDT
Civil Twilight 6:19 AM CDT 8:11 PM CDT
Nautical Twilight 5:47 AM CDT 8:42 PM CDT
Astronomical Twilight 5:14 AM CDT 9:15 PM CDT
Moon 6:42 AM CDT (4/10) 8:19 PM CDT (4/10)
Length of Visible Light 13h 52m
Length of Day
12h 58m
New Moon, 0% of the Moon is Illuminated
Apr 10
New Moon
Apr 18
First Quarter
Apr 25
Full
May 2
Last Quarter
May 9
New

Hourly Weather History & Observations

Time (CDT) Temp. Windchill Dew Point Humidity Pressure Visibility Wind Dir Wind Speed Gust Speed Precip Events Conditions
12:52 AM 68.0 °F - 57.9 °F 70% 29.72 in 10.0 mi SSE 10.4 mph - N/A   Clear
1:52 AM 69.1 °F - 59.0 °F 70% 29.72 in 10.0 mi SSE 11.5 mph - N/A   Mostly Cloudy
2:52 AM 69.1 °F - 60.1 °F 73% 29.71 in 10.0 mi SSE 13.8 mph - N/A   Scattered Clouds
3:52 AM 70.0 °F - 61.0 °F 73% 29.71 in 10.0 mi SSE 12.7 mph - 0.00 in   Overcast
4:03 AM 68.0 °F - 63.0 °F 84% 29.75 in 2.5 mi South 8.1 mph - 0.05 in Rain , Thunderstorm Heavy Thunderstorms and Rain
4:08 AM 66.9 °F - 63.0 °F 87% 29.75 in 1.8 mi SSW 9.2 mph - 0.20 in Rain , Thunderstorm Heavy Thunderstorms and Rain
4:15 AM 66.9 °F - 64.0 °F 90% 29.75 in 3.0 mi SSW 6.9 mph - 0.26 in Rain Rain
4:22 AM 66.9 °F - 64.0 °F 90% 29.76 in 5.0 mi SSW 12.7 mph - 0.27 in Rain Rain
4:52 AM 66.9 °F - 63.0 °F 87% 29.74 in 9.0 mi West 8.1 mph - 0.31 in   Overcast
5:17 AM 64.0 °F - 62.1 °F 93% 29.77 in 1.8 mi West 6.9 mph - 0.09 in Rain Heavy Rain
5:31 AM 63.0 °F - 62.1 °F 97% 29.77 in 2.0 mi North - - 0.39 in Rain Heavy Rain
5:38 AM 63.0 °F - 62.1 °F 97% 29.77 in 1.5 mi West 13.8 mph - 0.57 in Rain Heavy Rain
5:43 AM 63.0 °F - 61.0 °F 93% 29.77 in 4.0 mi West 12.7 mph - 0.59 in Rain Light Rain
5:52 AM 61.0 °F - 59.0 °F 93% 29.73 in 9.0 mi West 13.8 mph 21.9 mph 0.59 in Rain Light Rain
5:55 AM 61.0 °F - 59.0 °F 93% 29.76 in 8.0 mi West 11.5 mph 21.9 mph 0.00 in   Overcast
6:19 AM 60.1 °F - 57.9 °F 93% 29.77 in 6.0 mi WNW 10.4 mph - 0.00 in   Overcast
6:30 AM 57.9 °F - 55.9 °F 93% 29.78 in 5.0 mi WNW 10.4 mph - 0.00 in Rain Light Rain
6:52 AM 57.0 °F - 55.0 °F 93% 29.77 in 7.0 mi NW 8.1 mph - 0.05 in Rain Light Rain
7:52 AM 54.0 °F - 53.1 °F 97% 29.82 in 9.0 mi West 11.5 mph 23.0 mph 0.01 in Rain Light Rain
8:52 AM 54.0 °F - 52.0 °F 93% 29.79 in 10.0 mi North 5.8 mph - 0.01 in   Overcast
9:23 AM 55.0 °F - 52.0 °F 89% 29.81 in 10.0 mi NE 4.6 mph - N/A   Overcast
9:52 AM 55.0 °F - 52.0 °F 89% 29.82 in 10.0 mi WNW 10.4 mph - N/A   Overcast
10:52 AM 51.1 °F - 50.0 °F 96% 29.84 in 10.0 mi WNW 9.2 mph - N/A   Overcast
11:06 AM 50.0 °F - 48.9 °F 96% 29.85 in 10.0 mi West 15.0 mph - N/A   Overcast
11:52 AM 51.1 °F - 48.9 °F 92% 29.78 in 10.0 mi NE 10.4 mph - N/A   Overcast
12:52 PM 52.0 °F - 50.0 °F 93% 29.80 in 10.0 mi West 9.2 mph - N/A   Overcast
1:16 PM 52.0 °F - 48.9 °F 89% 29.78 in 10.0 mi NNW 5.8 mph - N/A   Overcast
1:52 PM 52.0 °F - 48.9 °F 89% 29.76 in 10.0 mi NW 6.9 mph - N/A   Overcast
2:42 PM 50.0 °F - 46.9 °F 89% 29.76 in 10.0 mi WNW 8.1 mph - N/A   Overcast
2:52 PM 48.9 °F - 46.9 °F 93% 29.75 in 10.0 mi WNW 8.1 mph - N/A   Overcast
3:52 PM 45.0 °F 39.7 °F 43.0 °F 93% 29.73 in 10.0 mi NW 10.4 mph - N/A   Overcast
4:52 PM 44.1 °F 36.5 °F 41.0 °F 89% 29.76 in 10.0 mi West 17.3 mph 20.7 mph N/A   Overcast
4:59 PM 44.1 °F 36.5 °F 42.1 °F 93% 29.79 in 8.0 mi West 17.3 mph 24.2 mph 0.01 in Rain Rain
5:07 PM 43.0 °F 34.8 °F 41.0 °F 93% 29.75 in 1.8 mi WNW 18.4 mph 24.2 mph 0.14 in Rain Heavy Rain
5:14 PM 42.1 °F 36.6 °F 41.0 °F 96% 29.76 in 1.8 mi WNW 9.2 mph 24.2 mph 0.27 in Rain Heavy Rain
5:29 PM 42.1 °F 36.6 °F 41.0 °F 96% 29.80 in 2.0 mi West 9.2 mph 17.3 mph 0.48 in Rain Heavy Rain
5:38 PM 42.1 °F 36.1 °F 41.0 °F 96% 29.79 in 4.0 mi West 10.4 mph - 0.51 in Rain Heavy Rain
5:52 PM 42.1 °F 35.7 °F 41.0 °F 96% 29.79 in 5.0 mi West 11.5 mph - 0.56 in Rain Rain
6:08 PM 42.8 °F 37.0 °F 41.0 °F 93% 29.81 in 5.0 mi WSW 10.4 mph - N/A Rain Heavy Rain
6:52 PM 42.1 °F 39.2 °F 41.0 °F 96% 29.77 in 10.0 mi West 4.6 mph - 0.23 in Rain Light Rain
7:52 PM 42.1 °F 35.2 °F 39.9 °F 92% 29.79 in 10.0 mi West 12.7 mph - 0.00 in Rain Light Rain
8:52 PM 41.0 °F 32.8 °F 39.0 °F 93% 29.78 in 8.0 mi WNW 16.1 mph - 0.00 in   Overcast
9:52 PM 39.0 °F 30.6 °F 37.0 °F 93% 29.82 in 6.0 mi West 15.0 mph 21.9 mph N/A   Overcast
10:52 PM 39.0 °F 31.8 °F 37.0 °F 93% 29.83 in 10.0 mi West 11.5 mph - N/A   Overcast
11:52 PM 39.0 °F 30.3 °F 37.0 °F 93% 29.83 in 3.0 mi West 16.1 mph 19.6 mph N/A   Overcast